Regional Weather Roundup
Issued by NWS Newport/Morehead, NC

Current Version | Previous Version | Graphics & Text | Print | Product List | Glossary Off
Versions: 1 2 3 4 5 6 7 8 9 10 11 12 13 14 15 16 17 18 19 20 21 22 23 24 25 26 27 28 29 30 31 32 33 34 35 36 37 38 39 40 41 42 43 44 45 46 47 48 49 50

000
ASUS42 KMHX 251322
RWRMHX
WEATHER ROUNDUP FOR EASTERN NORTH CAROLINA
NATIONAL WEATHER SERVICE NEWPORT/MOREHEAD CITY NC
900 AM EDT SAT OCT 25 2014

NOTE: "FAIR" INDICATES FEW OR NO CLOUDS BELOW 12,000 FEET
WITH NO SIGNIFICANT WEATHER AND/OR OBSTRUCTIONS TO VISIBILITY

NCZ015>017-031-032-045>047-102-103-251400-
NORTH COAST

CITY           SKY/WX    TMP DP  RH WIND       PRES   REMARKS
EDENTON        SUNNY     54  48  81 N3        30.00R
ELIZABETH CITY SUNNY     55  48  77 CALM      29.99S
KITTY HAWK     SUNNY     59  53  80 NW3       29.96S
MANTEO         SUNNY     59  53  80 NW5       29.98S

$$

NCZ045>047-081-094-103-104-251400-
CENTRAL COAST

CITY           SKY/WX    TMP DP  RH WIND       PRES   REMARKS
FRISCO         SUNNY     61  56  83 VRB3      29.98R
SWANQUARTER      N/A     57 N/A N/A VRB5      29.97R

$$

NCZ095-097-098-100-101-251400-
SOUTHERN COAST

CITY           SKY/WX    TMP DP  RH WIND       PRES   REMARKS
BEAUFORT       SUNNY     58  52  80 NW7       30.00R
CEDAR ISLAND     N/A     63 N/A N/A N5        30.03S
JACKSONVILLE   SUNNY     52  49  89 CALM      30.00S
PINEY ISLAND   SUNNY     65  53  65 N3        29.99R HAZE
WILMINGTON     SUNNY     55  50  83 NW5       30.01R


$$

NCZ011>013-027>030-043-044-078>080-089-090>093-098-251400-
COASTAL PLAIN

CITY           SKY/WX    TMP DP  RH WIND       PRES   REMARKS
AHOSKIE        SUNNY     49  45  85 CALM      30.01S
CLINTON        SUNNY     50  49  97 CALM      30.02R
ELIZABETHTOWN  SUNNY     52  46  80 CALM      30.02R
GOLDSBORO      SUNNY     51  50  98 NW2       30.00R
GREENVILLE     SUNNY     48  48 100 CALM      30.02S
HAVELOCK       SUNNY     54  49  83 NW3       30.01R
KENANSVILLE    SUNNY     53  48  84 N3        30.02S
KINSTON        SUNNY     50  48  93 CALM      30.01S
NEW BERN       SUNNY     55  49  80 W3        30.01S
RICHLANDS      SUNNY     54  46  76 CALM      30.01S
ROCKY MOUNT    SUNNY     48  47  96 CALM      30.01S
WASHINGTON     SUNNY     52  47  84 CALM      30.01R
WHITEVILLE     SUNNY     54  49  82 CALM      30.01S

$$

AMZ130-135-150-152-154-156-158-170-250-252-270-ANZ085-086-088-633-658-670-251400-
MARINE OBSERVATIONS

STATION/POSITION TIME  TEMP    WIND        PRES    WAVE   SWELL
                       AIR SEA DIR/SP/G            HT/PER HT/PER
                 (UTC) (F)     (DEG/KT/KT) (MB)    (FT/S) (FT/S)
CHESAPEAKE LIGHT 1300   61      10/ 14/ 15 1015.3
64 E VA BEACH    1300   62 66  340/ 12/ 14 1013.8    3/10   2/10
DUCK             1300   58 66  330/  9/ 11 1014.1
2 E DUCK         1300                        N/A     3/ 9
10 NE DUCK       1300      67                N/A     3/ 9   2/11
OREGON INLET     1300   59 64  310/  4/  7 1014.8
13E OREGON INLT  1300      69                N/A     4/ 9   2/11
HATTERAS CG      1300   61 65  350/  8/  9 1015.5
DIAMOND BUOY     1300   64     340/ 10/ 12 1015.2    3/ 8   3/ 8
17 S OCRACOKE    1200          VRB 14/ 16  1014.7
CAPE LOOKOUT     1300   60     350/ 10/ 12 1015.6
BEAUFORT LAB     1300   57 67  350/  7/ 10 1015.1
30 SE NEW RIVER  1300   66 74  330/  8/ 10 1015.2    2/ 9   2/ 9
5 SE WRIGHTSVLE  1300   61 71  330/  6/  8   N/A
225 S CAPE HAT   1234   72 77   10/ 10/ 16 1013.6    3/10   3/10
41 SE CHARLESTON 1300   69 78  360/  8/ 16 1015.4    3/10   3/10

$$



USA.gov is the U.S. government's official web portal to all federal, state and local government web resources and services.